CAPE
3 8 0 0 0 0 0 0 0 0 0 0 0 0 0 0 0 0 0 0 0 0 0 0 0 0 0 0 0 0 0 0 0 0 0 0 0 1
0 0 0 0 0 0 0 0 0 0 0 0 0 0 0 0 0 1 0 0 0 0 0 0 0 0 0 0 0 0 0 0 0 0 0 0 1 3
0 0 0 0 0 0 0 0 0 0 0 0 0 0 0 0 0 0 0 0 0 0 0 0 0 0 0 0 0 0 0 0 0 0 0 0 0 2
0 0 0 0 0 0 0 0 0 0 0 0 0 0 0 0 0 0 0 0 0 0 0 0 0 0 0 0 0 0 0 0 0 0 0 0 0 1
0 0 0 0 1 1 0 0 0 0 0 0 0 0 0 0 0 0 0 0 0 0 0 0 0 0 0 0 0 0 0 0 0 0 0 0 0 0
0 0 0 0 0 0 0 0 0 0 0 0 0 1 1 2 0 0 0 0 0 0 0 0 0 0 0 0 0 0 0 0 0 0 0 0 0 1
0 0 0 0 0 0 0 0 0 0 0 1 2 3 2 1 0 0 0 0 0 0 0 0 0 0 0 0 0 0 0 0 0 0 0 0 0 0
0 0 0 0 0 0 0 0 0 0 2 5 4 1 0 0 0 0 0 0 0 0 0 0 0 0 0 0 0 0 0 0 0 0 0 0 0 0
0 0 0 0 0 0 0 1 1 0 0 1 3 1 0 0 0 0 0 0 0 0 0 0 0 0 0 0 0 0 0 0 0 0 0 1 1 0
0 0 0 0 1 1 3 4 4 0 0 1 0 0 0 0 0 0 0 0 0 0 0 0 0 0 0 0 0 0 0 0 0 0 1 0 0 1
0 0 0 1 1 0 0 2 1 1 0 0 0 0 0 0 0 0 0 0 0 0 1 0 0 0 0 0 0 0 0 0 0 0 0 0 0 1
0 1 0 1 0 0 0 0 2 2 3 2 3 0 0 0 0 0 0 0 0 1 1 0 0 0 0 0 0 0 0 0 0 0 0 0 1 0
0 2 2 1 0 0 0 0 1 9 5 6 8 10 9 8 3 1 3 1 0 0 0 0 1 0 0 0 0 0 0 0 0 0 0 0 0 0
0 4 5 2 1 0 0 0 1 3 5 7 9 9 10 11 9 8 2 1 0 1 0 0 1 0 2 2 0 0 0 0 0 0 0 0 0 0
3 4 7 5 3 1 0 2 0 3 5 5 5 7 8 7 5 4 0 0 0 0 0 0 0 1 3 2 1 1 1 0 0 0 0 0 0 0
4 10 6 5 0 4 7 0 0 0 0 0 2 3 2 0 2 1 5 4 7 8 0 0 0 1 3 3 1 2 0 1 0 0 1 2 2 0
8 13 12 6 3 3 0 0 0 0 0 0 0 1 0 1 4 3 5 6 8 11 9 4 3 4 6 5 5 0 0 0 1 4 5 5 3 2
12 11 11 8 3 2 0 0 0 0 0 0 0 0 1 3 6 4 9 12 15 14 11 11 11 11 6 1 1 3 4 4 5 4 6 9 4 3
14 10 13 8 4 1 0 0 0 0 0 0 0 1 4 5 2 11 10 13 13 14 13 14 14 10 6 2 0 0 3 2 3 5 8 11 12 4
6 9 9 9 3 1 0 0 0 0 0 1 6 8 8 12 10 13 15 16 18 12 9 7 8 10 11 8 9 7 1 6 13 12 12 13 11 4
5 6 8 6 3 1 1 0 0 2 3 5 6 4 8 15 12 12 15 0 0 5 6 6 7 0 4 8 6 3 5 1 6 11 11 16 13 10
5 4 5 3 3 3 2 2 5 4 7 9 11 7 5 5 13 13 10 8 7 8 9 6 3 4 5 6 2 1 4 6 2 4 8 16 21 25
3 2 3 4 3 2 2 6 7 12 5 3 3 4 7 9 6 5 6 5 5 4 3 2 1 4 3 3 3 4 1 2 8 9 7 3 8 12
CIN
-1 -14 -0 -0 -0 -0 -0 -0 -0 -0 -0 -0 -0 -0 -0 -0 -0 -0 -0 -0 -0 -0 -0 -0 -0 -0 -0 -0 -0 -0 -0 -0 -0 -0 -0 -0 -0 -0
-0 -0 -0 -0 -0 -0 -0 -0 -0 -0 -0 -0 -0 -0 -0 -0 -0 -0 -0 -0 -0 -0 -0 -0 -0 -0 -0 -0 -0 -0 -0 -0 -0 -0 -0 -0 -0 -0
-0 -0 -0 -0 -0 -0 -0 -0 -0 -0 -0 -0 -0 -0 -0 -0 -0 -0 -0 -0 -0 -0 -0 -0 -0 -0 -0 -0 -0 -0 -0 -0 -0 -0 -0 -0 -0 -0
-0 -0 -0 -0 -0 -0 -0 -0 -0 -0 -0 -0 -0 -0 -0 -0 -0 -0 -0 -0 -0 -0 -0 -0 -0 -0 -0 -0 -0 -0 -0 -0 -0 -0 -0 -0 -0 -0
-0 -0 -0 -0 -0 -0 -0 -0 -0 -0 -0 -0 -0 -0 -0 -0 -0 -0 -0 -0 -0 -0 -0 -0 -0 -0 -0 -0 -0 -0 -0 -0 -0 -0 -0 -0 -0 -0
-0 -0 -0 -0 -0 -0 -0 -0 -0 -0 -0 -0 -0 -0 -0 -0 -0 -0 -0 -0 -0 -0 -0 -0 -0 -0 -0 -0 -0 -0 -0 -0 -0 -0 -0 -0 -0 -0
-0 -0 -0 -0 -0 -0 -0 -0 -0 -0 -0 -0 -0 -0 -0 -0 -0 -0 -0 -0 -0 -0 -0 -0 -0 -0 -0 -0 -0 -0 -0 -0 -0 -0 -0 -0 -0 -0
-0 -0 -0 -0 -0 -0 -0 -0 -0 -0 -0 -0 -0 -0 -0 -0 -0 -0 -0 -0 -0 -0 -0 -0 -0 -0 -0 -0 -0 -0 -0 -0 -0 -0 -0 -0 -0 -0
-0 -0 -0 -0 -0 -0 -0 -0 -0 -0 -0 -1 -0 -0 -0 -0 -0 -0 -0 -0 -0 -0 -0 -0 -0 -0 -0 -0 -0 -0 -0 -0 -0 -0 -0 -0 -0 -0
-0 -0 -0 -0 -0 -0 -0 -0 -0 -0 -0 -0 -0 -0 -0 -0 -0 -0 -0 -0 -0 -0 -0 -0 -0 -0 -0 -0 -0 -0 -0 -0 -0 -0 -0 -0 -0 -0
-0 -0 -0 -0 -0 -0 -0 -0 -0 -0 -0 -0 -0 -0 -0 -0 -0 -0 -0 -0 -0 -0 -0 -0 -0 -0 -0 -0 -0 -0 -0 -0 -0 -0 -0 -0 -0 -0
-0 -0 -0 -0 -0 -0 -0 -0 -0 -0 -0 -0 -0 -0 -0 -0 -0 -0 -0 -0 -0 -0 -0 -0 -0 -0 -0 -0 -0 -0 -0 -0 -0 -0 -0 -0 -0 -0
-0 -0 -0 -0 -0 -0 -0 -0 -0 -0 -0 -0 -0 -0 -0 -0 -0 -0 -0 -0 -0 -0 -0 -0 -0 -0 -0 -0 -0 -0 -0 -0 -0 -0 -0 -0 -0 -0
-0 -0 -0 -0 -0 -0 -0 -0 -0 -0 -0 -0 -0 -0 -0 -0 -0 -0 -0 -0 -0 -0 -0 -0 -0 -0 -0 -0 -0 -0 -0 -0 -0 -0 -0 -0 -0 -0
-0 -0 -0 -0 -0 -0 -0 -0 -0 -0 -0 -0 -0 -0 -0 -0 -0 -0 -0 -0 -0 -0 -0 -0 -0 -0 -0 -0 -0 -0 -0 -0 -0 -0 -0 -0 -0 -0
-0 -0 -0 -0 -0 -0 -0 -0 -0 -0 -0 -0 -0 -0 -0 -0 -0 -0 -0 -0 -0 -0 -0 -0 -0 -0 -0 -0 -0 -0 -0 -0 -0 -0 -0 -0 -0 -0
-0 -0 -0 -0 -0 -0 -0 -0 -0 -0 -0 -0 -0 -0 -0 -0 -0 -0 -0 -0 -0 -0 -0 -0 -0 -0 -0 -0 -0 -0 -0 -0 -0 -0 -0 -0 -0 -0
-0 -0 -0 -0 -0 -0 -0 -0 -0 -0 -0 -0 -0 -0 -0 -0 -0 -0 -0 -0 -0 -0 -0 -0 -0 -0 -0 -0 -0 -0 -0 -0 -0 -0 -0 -0 -0 -0
-0 -0 -0 -0 -0 -0 -0 -0 -0 -0 -0 -0 -0 -0 -0 -0 -0 -0 -0 -0 -0 -0 -0 -0 -0 -0 -0 -0 -0 -0 -0 -0 -0 -0 -0 -0 -0 -0
-0 -0 -0 -0 -0 -0 -0 -0 -0 -0 -0 -0 -0 -0 -0 -0 -0 -0 -0 -0 -0 -0 -0 -0 -0 -0 -0 -0 -0 -0 -0 -0 -0 -0 -0 -0 -0 -0
-0 -0 -0 -0 -0 -0 -0 -0 -0 -0 -0 -0 -0 -0 -0 -0 -0 -0 -0 -0 -0 -0 -0 -0 -0 -0 -0 -0 -0 -0 -0 -0 -0 -0 -0 -0 -0 -0
-0 -0 -0 -0 -0 -0 -0 -0 -0 -0 -0 -0 -0 -0 -0 -0 -0 -0 -0 -0 -0 -0 -0 -0 -0 -0 -0 -0 -0 -0 -0 -0 -0 -0 -0 -0 -0 -0
-0 -0 -0 -0 -0 -0 -0 -0 -0 -0 -0 -0 -0 -0 -0 -0 -0 -0 -0 -0 -0 -0 -0 -0 -0 -0 -0 -0 -0 -0 -0 -0 -0 -0 -0 -0 -0 -0
Wind_Speed
13 7 5 3 5 8 9 14 12 9 12 10 7 12 10 9 11 12 10 15 13 12 12 11 8 7 5 5 6 6 7 7 7 9 9 10 11 12
11 13 2 1 5 5 8 7 6 10 9 5 4 13 13 10 13 12 11 15 12 10 11 11 9 6 6 7 5 5 6 5 7 8 9 10 11 12
12 14 12 6 4 5 5 6 7 7 8 3 3 8 14 13 13 11 10 9 8 15 14 12 10 9 6 5 4 4 5 5 7 6 9 10 12 13
14 15 14 9 10 8 7 7 6 5 6 10 7 7 10 13 13 13 9 7 9 12 13 13 10 7 5 3 3 3 4 5 5 7 9 9 12 15
15 16 15 15 12 9 8 8 7 5 6 8 8 5 6 9 12 11 9 9 6 13 13 11 7 5 3 2 2 2 2 4 5 8 9 11 12 12
13 14 14 14 12 12 9 9 8 8 8 9 7 8 8 10 10 11 9 7 7 6 5 4 5 4 2 2 1 3 3 6 11 12 10 9 7 11
8 10 11 13 16 13 8 8 9 7 8 8 8 8 9 11 13 10 9 8 5 4 4 5 4 3 3 5 3 3 6 11 12 11 8 3 9 13
10 7 8 16 15 17 15 16 12 13 11 9 9 12 14 12 11 10 9 9 6 4 5 5 4 4 3 4 1 6 11 12 10 8 4 6 12 14
10 10 8 7 13 11 14 15 11 8 7 9 12 12 13 14 13 14 12 9 5 5 4 4 3 4 3 4 5 10 11 9 7 7 7 13 18 17
12 12 13 11 11 13 12 11 10 8 6 4 8 9 9 12 12 9 9 8 6 4 3 3 2 3 3 5 7 7 6 7 6 7 12 19 19 18
11 12 13 12 19 21 13 13 13 10 12 17 16 16 17 15 12 10 8 8 4 4 3 3 2 3 4 5 2 3 4 4 9 16 17 19 19 18
9 11 18 15 21 20 14 13 13 11 12 13 12 14 14 13 12 6 8 7 4 4 4 4 2 2 3 2 3 3 5 9 13 15 16 17 18 11
9 9 9 22 21 19 16 11 12 14 13 11 10 9 8 9 7 6 6 5 6 3 6 3 3 2 4 4 4 6 7 7 8 10 14 14 14 14
11 9 13 23 20 20 12 18 22 14 10 10 10 9 8 7 7 7 7 6 4 4 7 4 2 3 5 6 5 3 7 9 10 9 9 11 14 14
10 16 24 22 21 13 21 23 15 10 9 9 9 8 7 7 9 8 6 6 5 5 4 4 4 4 5 6 8 9 8 7 10 9 7 9 10 10
17 16 15 14 12 14 14 12 8 8 8 8 7 8 8 7 7 6 6 6 4 4 4 5 5 5 6 7 8 10 9 8 7 10 10 10 10 11
16 12 11 11 12 11 9 9 8 8 7 7 8 8 8 7 6 7 5 5 5 4 4 4 5 6 7 10 10 10 10 10 9 9 11 11 11 11
14 13 11 11 11 11 10 9 8 8 8 8 8 8 7 7 6 5 5 6 5 5 5 5 5 7 7 9 15 9 9 10 9 10 11 12 13 11
11 11 11 11 11 10 10 10 10 8 9 8 8 7 6 6 6 6 6 5 5 6 6 5 6 7 10 11 7 13 10 9 10 11 11 12 15 13
9 11 11 11 10 10 9 8 8 9 8 7 7 7 6 6 6 7 6 7 7 6 6 6 7 8 10 12 11 10 15 12 11 12 13 13 14 24
9 9 9 10 10 9 9 7 8 8 8 7 6 5 6 7 7 6 6 5 6 6 8 8 7 6 8 10 11 11 9 13 14 13 13 14 15 15
8 9 9 9 9 9 8 7 7 6 6 6 6 5 5 5 6 7 6 6 6 7 8 7 6 7 8 10 13 15 11 9 11 20 25 23 14 15
8 8 8 8 8 8 7 7 6 6 6 5 5 5 5 6 5 4 5 6 7 8 8 7 7 7 9 10 13 12 17 14 11 12 13 20 23 27
Wind_Direction
157 208 220 199 151 138 150 162 146 164 184 180 165 187 180 176 172 177 178 170 165 159 159 147 135 110 74 64 67 45 22 10 17 9 8 4 357 360
154 134 157 222 127 133 146 152 155 141 170 165 161 171 176 180 172 180 181 169 171 171 158 147 131 116 106 84 56 10 350 1 359 354 3 352 350 354
150 148 145 150 116 106 116 116 126 113 131 114 115 157 175 173 172 175 174 172 150 133 132 132 127 114 95 66 34 359 346 360 346 2 349 346 345 344
151 146 147 150 147 151 139 128 127 112 120 158 151 146 181 182 163 169 167 155 144 134 133 128 119 109 92 68 36 13 10 337 339 346 335 339 335 332
154 152 157 153 154 156 151 143 143 129 136 146 142 148 139 159 155 156 153 139 137 130 120 120 117 114 90 88 71 353 350 345 341 329 324 321 323 322
156 151 152 158 154 142 141 146 142 133 125 137 130 139 137 160 157 148 154 159 150 155 135 131 158 133 144 178 4 324 328 332 323 315 311 312 333 335
143 150 151 145 141 149 144 149 146 137 130 135 133 146 154 162 171 167 168 163 159 182 180 186 196 210 193 196 244 243 297 314 311 306 298 332 326 326
145 134 143 145 150 151 150 155 159 155 153 150 160 168 168 169 169 170 162 174 184 189 203 196 216 227 232 238 118 276 306 303 298 289 248 302 322 316
136 134 121 131 131 133 128 120 119 127 139 151 157 174 169 168 166 169 176 182 174 142 178 225 215 232 216 221 248 294 299 291 284 270 279 313 314 310
143 143 135 135 137 128 125 120 119 106 125 112 143 146 148 158 156 159 154 124 108 131 179 229 173 249 266 286 296 289 282 285 268 266 295 306 304 300
133 136 135 133 141 138 126 117 107 90 88 95 101 113 124 131 135 131 145 158 152 164 185 216 180 266 282 289 277 268 269 260 291 297 298 300 300 302
121 130 138 140 140 136 130 130 126 129 118 110 106 105 111 118 121 136 153 166 147 167 171 200 202 345 295 223 254 241 275 269 282 285 293 296 299 293
135 138 139 140 141 139 139 148 140 135 129 123 121 125 129 129 127 127 133 158 165 147 143 170 173 212 242 288 287 289 294 292 296 296 295 287 293 292
142 138 142 144 141 136 134 135 138 132 138 139 141 146 147 142 136 132 128 124 96 104 141 165 195 251 268 277 267 269 295 303 296 292 299 298 283 276
139 139 141 142 138 131 135 135 135 142 144 148 152 151 148 136 126 122 114 102 111 134 161 183 247 255 260 272 288 294 302 287 286 283 287 296 295 293
128 131 134 129 130 128 128 134 141 148 151 151 152 140 129 140 149 155 163 171 185 192 206 211 223 241 277 277 287 282 283 281 285 292 292 288 284 277
134 130 132 135 139 138 137 137 138 141 149 146 147 144 149 160 161 179 179 174 218 226 237 213 227 260 275 279 277 274 280 281 286 290 288 284 283 280
138 140 143 145 151 152 145 141 143 151 148 148 148 157 161 176 175 180 192 207 230 247 261 273 269 276 274 255 232 268 273 280 287 287 286 285 285 283
138 141 145 155 155 151 151 155 153 156 152 159 162 168 175 183 183 192 208 216 237 250 261 262 268 284 287 281 283 223 276 281 294 292 284 280 284 286
139 146 150 157 157 155 158 158 151 149 164 173 175 177 177 196 201 216 218 233 246 259 267 268 267 269 271 284 291 279 287 281 276 285 289 284 284 289
137 140 151 158 157 156 157 154 151 158 172 183 183 180 185 204 213 232 241 247 261 264 270 270 275 339 288 284 272 272 270 265 273 276 286 286 289 292
146 149 155 153 151 151 152 153 157 160 168 182 181 180 180 202 228 235 243 262 260 264 268 274 274 266 267 267 276 285 282 286 287 279 272 269 276 278
145 143 146 146 147 148 150 155 165 166 169 171 173 180 190 213 227 246 261 253 261 258 263 274 276 268 266 268 276 282 285 288 288 288 280 277 274 275